| time (UTC) | temp F | wind direction | speed MPH | gust MPH | rain 1hr in | rain 24hr in | rain mn in | humidity % | barometer mb |
| 20260506005256 | 52 | 306 | 0.0 | 0.0 | 0.17 | 0.18 | 0.18 | 98 | 1009.7 |
| 20260506004752 | 52 | 308 | 3.0 | 3.0 | 0.19 | 0.17 | 0.17 | 98 | 1009.8 |
| 20260506004251 | 53 | 306 | 2.0 | 3.0 | 0.19 | 0.15 | 0.15 | 98 | 1009.8 |
| 20260506003746 | 55 | 271 | 3.0 | 5.0 | 0.12 | 0.13 | 0.13 | 98 | 1010.0 |
| 20260506003243 | 56 | 321 | 1.0 | 2.0 | 0.05 | 0.12 | 0.12 | 98 | 1009.7 |
| 20260506002739 | 57 | 16 | 0.0 | 1.0 | 0.00 | 0.11 | 0.11 | 98 | 1009.2 |
| 20260506002235 | 57 | 16 | 0.0 | 1.0 | 0.00 | 0.11 | 0.11 | 98 | 1009.0 |
| 20260506001731 | 57 | 16 | 0.0 | 0.0 | 0.00 | 0.11 | 0.11 | 98 | 1008.6 |
| 20260506001229 | 57 | 346 | 0.0 | 1.0 | 0.00 | 0.11 | 0.11 | 98 | 1008.6 |
| 20260506000725 | 57 | 304 | 0.0 | 0.0 | 0.00 | 0.11 | 0.11 | 98 | 1008.5 |
| 20260506000223 | 57 | 294 | 0.0 | 0.0 | 0.07 | 0.11 | 0.11 | 98 | 1008.7 |
| 20260505235720 | 57 | 16 | 0.0 | 0.0 | 0.07 | 0.11 | 0.11 | 98 | 1008.7 |
| 20260505235218 | 58 | 16 | 0.0 | 0.0 | 0.00 | 0.10 | 0.10 | 98 | 1008.3 |
| 20260505234715 | 58 | 242 | 1.0 | 2.0 | 0.00 | 0.10 | 0.10 | 98 | 1008.6 |
| 20260505234212 | 58 | 319 | 0.0 | 1.0 | 0.00 | 0.10 | 0.10 | 98 | 1008.7 |
| 20260505233708 | 58 | 346 | 1.0 | 1.0 | 0.00 | 0.10 | 0.10 | 98 | 1008.6 |
| 20260505233206 | 58 | 313 | 0.0 | 0.0 | 0.00 | 0.10 | 0.10 | 98 | 1008.9 |
| 20260505232703 | 58 | 313 | 0.0 | 0.0 | 0.00 | 0.10 | 0.10 | 98 | 1008.3 |
| 20260505232201 | 58 | 318 | 0.0 | 0.0 | 0.00 | 0.10 | 0.10 | 98 | 1008.2 |
| 20260505231657 | 59 | 311 | 0.0 | 0.0 | 0.00 | 0.10 | 0.10 | 98 | 1008.6 |
| 20260505231156 | 59 | 353 | 0.0 | 0.0 | 0.00 | 0.10 | 0.10 | 98 | 1008.7 |
| 20260505230654 | 59 | 354 | 0.0 | 0.0 | 0.00 | 0.10 | 0.10 | 98 | 1008.9 |
| 20260505230150 | 59 | 356 | 0.0 | 0.0 | 0.00 | 0.10 | 0.10 | 97 | 1008.8 |
| 20260505225646 | 59 | 2 | 0.0 | 0.0 | 0.00 | 0.10 | 0.10 | 97 | 1008.7 |
| 20260505225142 | 59 | 2 | 0.0 | 0.0 | 0.00 | 0.10 | 0.10 | 97 | 1008.9 |
| 20260505224634 | 59 | 325 | 0.0 | 0.0 | 0.00 | 0.10 | 0.10 | 97 | 1008.7 |
| 20260505224132 | 59 | 325 | 0.0 | 0.0 | 0.00 | 0.10 | 0.10 | 97 | 1008.9 |
| 20260505223629 | 59 | 326 | 0.0 | 0.0 | 0.00 | 0.10 | 0.10 | 97 | 1008.7 |
| 20260505223125 | 59 | 326 | 0.0 | 0.0 | 0.00 | 0.10 | 0.10 | 97 | 1008.8 |
| 20260505222621 | 59 | 326 | 0.0 | 0.0 | 0.00 | 0.10 | 0.10 | 96 | 1008.7 |
| 20260505222117 | 59 | 313 | 0.0 | 0.0 | 0.00 | 0.10 | 0.10 | 96 | 1008.8 |
| 20260505221614 | 59 | 313 | 0.0 | 1.0 | 0.00 | 0.10 | 0.10 | 96 | 1008.6 |
| 20260505221111 | 59 | 19 | 0.0 | 0.0 | 0.00 | 0.10 | 0.10 | 96 | 1008.7 |
| 20260505220608 | 60 | 19 | 1.0 | 1.0 | 0.00 | 0.10 | 0.10 | 95 | 1008.6 |
| 20260505220106 | 60 | 19 | 0.0 | 0.0 | 0.00 | 0.10 | 0.10 | 95 | 1008.7 |
| 20260505215604 | 59 | 19 | 0.0 | 0.0 | 0.00 | 0.10 | 0.10 | 94 | 1008.9 |
| 20260505215101 | 60 | 19 | 0.0 | 0.0 | 0.05 | 0.10 | 0.10 | 94 | 1009.1 |
| 20260505214559 | 60 | 19 | 0.0 | 0.0 | 0.19 | 0.10 | 0.10 | 93 | 1009.1 |
| 20260505214056 | 60 | 19 | 0.0 | 0.0 | 0.24 | 0.10 | 0.10 | 92 | 1009.4 |
| 20260505213554 | 61 | 19 | 0.0 | 0.0 | 0.24 | 0.07 | 0.07 | 91 | 1009.7 |
| 20260505213050 | 62 | 19 | 0.0 | 0.0 | 0.17 | 0.05 | 0.05 | 88 | 1009.4 |
| 20260505212546 | 64 | 19 | 1.0 | 1.0 | 0.05 | 0.03 | 0.03 | 83 | 1009.0 |
| 20260505212044 | 65 | 19 | 0.0 | 0.0 | 0.00 | 0.02 | 0.02 | 78 | 1008.7 |
| 20260505211540 | 65 | 19 | 0.0 | 0.0 | 0.00 | 0.02 | 0.02 | 75 | 1008.4 |
| 20260505211037 | 65 | 19 | 0.0 | 0.0 | 0.00 | 0.02 | 0.02 | 75 | 1008.4 |
| 20260505210534 | 66 | 19 | 0.0 | 0.0 | 0.00 | 0.02 | 0.02 | 76 | 1008.4 |
| 20260505210031 | 66 | 19 | 0.0 | 0.0 | 0.00 | 0.02 | 0.02 | 75 | 1008.3 |
| 20260505205529 | 66 | 19 | 1.0 | 1.0 | 0.00 | 0.02 | 0.02 | 73 | 1008.5 |
| 20260505205026 | 66 | 19 | 0.0 | 0.0 | 0.00 | 0.02 | 0.02 | 72 | 1008.5 |
| 20260505204524 | 66 | 19 | 1.0 | 1.0 | 0.00 | 0.02 | 0.02 | 72 | 1008.6 |
| 20260505204021 | 66 | 19 | 1.0 | 1.0 | 0.00 | 0.02 | 0.02 | 69 | 1008.4 |
| 20260505203517 | 67 | 18 | 1.0 | 1.0 | 0.00 | 0.02 | 0.02 | 71 | 1008.6 |
| 20260505203014 | 67 | 331 | 0.0 | 0.0 | 0.00 | 0.02 | 0.02 | 69 | 1008.7 |
| 20260505202510 | 68 | 320 | 1.0 | 2.0 | 0.00 | 0.02 | 0.02 | 68 | 1008.4 |
| 20260505202006 | 68 | 320 | 1.0 | 1.0 | 0.00 | 0.02 | 0.02 | 66 | 1008.8 |
| 20260505201504 | 68 | 320 | 1.0 | 1.0 | 0.00 | 0.02 | 0.02 | 69 | 1008.7 |
| 20260505201001 | 68 | 320 | 0.0 | 0.0 | 0.00 | 0.02 | 0.02 | 67 | 1008.6 |
| 20260505200459 | 68 | 320 | 0.0 | 0.0 | 0.00 | 0.02 | 0.02 | 67 | 1008.6 |
| 20260505195954 | 68 | 340 | 1.0 | 2.0 | 0.00 | 0.02 | 0.02 | 67 | 1008.6 |
| 20260505195451 | 68 | 341 | 0.0 | 0.0 | 0.00 | 0.02 | 0.02 | 65 | 1008.7 |
| 20260505194949 | 68 | 23 | 1.0 | 1.0 | 0.00 | 0.02 | 0.02 | 66 | 1008.8 |
| 20260505194446 | 68 | 294 | 0.0 | 1.0 | 0.00 | 0.02 | 0.02 | 65 | 1008.7 |
| 20260505193946 | 68 | 263 | 1.0 | 2.0 | 0.00 | 0.02 | 0.02 | 65 | 1009.0 |
| 20260505193444 | 68 | 268 | 2.0 | 2.0 | 0.00 | 0.02 | 0.02 | 65 | 1009.1 |
| 20260505192941 | 68 | 266 | 1.0 | 2.0 | 0.00 | 0.02 | 0.02 | 67 | 1009.1 |
| 20260505192440 | 68 | 262 | 0.0 | 0.0 | 0.00 | 0.02 | 0.02 | 65 | 1009.0 |
| 20260505191937 | 67 | 262 | 1.0 | 1.0 | 0.00 | 0.02 | 0.02 | 68 | 1009.1 |
| 20260505191436 | 68 | 261 | 2.0 | 2.0 | 0.00 | 0.02 | 0.02 | 67 | 1008.8 |
| 20260505190932 | 68 | 239 | 1.0 | 1.0 | 0.00 | 0.02 | 0.02 | 64 | 1009.1 |
| 20260505190427 | 68 | 237 | 1.0 | 2.0 | 0.00 | 0.02 | 0.02 | 64 | 1008.9 |
| 20260505185922 | 68 | 236 | 1.0 | 1.0 | 0.00 | 0.02 | 0.02 | 65 | 1008.7 |
| 20260505185420 | 68 | 231 | 0.0 | 1.0 | 0.00 | 0.02 | 0.02 | 65 | 1008.8 |
| 20260505184917 | 69 | 230 | 1.0 | 1.0 | 0.00 | 0.02 | 0.02 | 64 | 1008.9 |
| 20260505184413 | 69 | 230 | 0.0 | 0.0 | 0.00 | 0.02 | 0.02 | 62 | 1008.6 |
| 20260505183910 | 70 | 234 | 3.0 | 5.0 | 0.00 | 0.02 | 0.02 | 61 | 1008.7 |
| 20260505183407 | 70 | 195 | 1.0 | 2.0 | 0.00 | 0.02 | 0.02 | 62 | 1008.5 |
| 20260505182904 | 71 | 202 | 2.0 | 2.0 | 0.00 | 0.02 | 0.02 | 60 | 1008.8 |
| 20260505182400 | 71 | 241 | 1.0 | 1.0 | 0.00 | 0.02 | 0.02 | 60 | 1009.0 |
| 20260505181857 | 70 | 253 | 2.0 | 2.0 | 0.00 | 0.02 | 0.02 | 62 | 1008.8 |
| 20260505181355 | 70 | 247 | 0.0 | 0.0 | 0.00 | 0.02 | 0.02 | 63 | 1008.6 |
| 20260505180851 | 70 | 245 | 1.0 | 1.0 | 0.00 | 0.02 | 0.02 | 65 | 1008.9 |
| 20260505180347 | 69 | 249 | 1.0 | 2.0 | 0.00 | 0.02 | 0.02 | 61 | 1008.8 |
| 20260505175844 | 69 | 260 | 1.0 | 2.0 | 0.00 | 0.02 | 0.02 | 62 | 1008.7 |
| 20260505175340 | 69 | 263 | 1.0 | 1.0 | 0.00 | 0.02 | 0.02 | 62 | 1008.7 |
| 20260505174837 | 69 | 284 | 1.0 | 1.0 | 0.00 | 0.02 | 0.02 | 63 | 1008.6 |
| 20260505174335 | 69 | 284 | 1.0 | 2.0 | 0.00 | 0.02 | 0.02 | 62 | 1008.6 |
| 20260505173830 | 69 | 284 | 0.0 | 0.0 | 0.00 | 0.02 | 0.02 | 63 | 1008.5 |
| 20260505173327 | 69 | 263 | 2.0 | 3.0 | 0.00 | 0.02 | 0.02 | 62 | 1008.7 |
| 20260505172825 | 69 | 275 | 4.0 | 6.0 | 0.00 | 0.02 | 0.02 | 62 | 1008.5 |
| 20260505172322 | 69 | 209 | 3.0 | 3.0 | 0.00 | 0.02 | 0.02 | 63 | 1008.7 |
| 20260505171821 | 70 | 200 | 3.0 | 5.0 | 0.00 | 0.02 | 0.02 | 61 | 1008.5 |
| 20260505171319 | 71 | 193 | 1.0 | 2.0 | 0.00 | 0.02 | 0.02 | 62 | 1008.5 |
| 20260505170815 | 71 | 190 | 1.0 | 1.0 | 0.00 | 0.02 | 0.02 | 59 | 1008.7 |
| 20260505170312 | 70 | 186 | 1.0 | 1.0 | 0.00 | 0.02 | 0.02 | 61 | 1008.6 |
| 20260505165807 | 70 | 203 | 2.0 | 3.0 | 0.00 | 0.02 | 0.02 | 60 | 1008.4 |
| 20260505165306 | 71 | 196 | 3.0 | 3.0 | 0.00 | 0.02 | 0.02 | 60 | 1008.6 |
| 20260505164759 | 72 | 178 | 1.0 | 1.0 | 0.00 | 0.02 | 0.02 | 58 | 1008.6 |
| 20260505164256 | 71 | 174 | 3.0 | 3.0 | 0.00 | 0.02 | 0.02 | 61 | 1008.7 |
| 20260505163754 | 70 | 170 | 1.0 | 1.0 | 0.00 | 0.02 | 0.02 | 64 | 1008.6 |
| 20260505163253 | 71 | 202 | 2.0 | 2.0 | 0.00 | 0.02 | 0.02 | 60 | 1008.6 |
| 20260505162750 | 71 | 198 | 3.0 | 5.0 | 0.00 | 0.02 | 0.02 | 61 | 1008.4 |
| 20260505162247 | 70 | 213 | 1.0 | 2.0 | 0.00 | 0.02 | 0.02 | 65 | 1008.5 |
| 20260505161744 | 69 | 202 | 1.0 | 2.0 | 0.00 | 0.02 | 0.02 | 61 | 1008.4 |
| 20260505161241 | 68 | 212 | 2.0 | 2.0 | 0.00 | 0.02 | 0.02 | 68 | 1008.4 |
| 20260505160738 | 68 | 234 | 2.0 | 2.0 | 0.00 | 0.02 | 0.02 | 67 | 1008.6 |
| 20260505160236 | 68 | 214 | 3.0 | 3.0 | 0.00 | 0.02 | 0.02 | 66 | 1008.8 |
| 20260505153215 | 68 | 232 | 1.0 | 2.0 | 0.00 | 0.02 | 0.02 | 67 | 1008.8 |
| 20260505152712 | 68 | 248 | 1.0 | 2.0 | 0.00 | 0.02 | 0.02 | 67 | 1008.9 |
| 20260505152208 | 68 | 190 | 1.0 | 3.0 | 0.00 | 0.02 | 0.02 | 70 | 1008.7 |
| 20260505151703 | 68 | 194 | 5.0 | 7.0 | 0.00 | 0.02 | 0.02 | 67 | 1008.7 |
| 20260505151200 | 68 | 192 | 3.0 | 5.0 | 0.00 | 0.02 | 0.02 | 68 | 1008.6 |
| 20260505150656 | 68 | 216 | 2.0 | 3.0 | 0.00 | 0.02 | 0.02 | 71 | 1008.7 |
| 20260505150154 | 68 | 210 | 3.0 | 3.0 | 0.00 | 0.02 | 0.02 | 68 | 1008.5 |
| 20260505140622 | 62 | 222 | 2.0 | 2.0 | 0.00 | 0.02 | 0.02 | 78 | 1008.1 |
| 20260505140119 | 62 | 214 | 1.0 | 2.0 | 0.00 | 0.02 | 0.02 | 79 | 1008.3 |
| 20260505125030 | 64 | 219 | 1.0 | 1.0 | 0.00 | 0.00 | 0.00 | 73 | 1008.5 |
| 20260505124527 | 64 | 210 | 1.0 | 2.0 | 0.00 | 0.00 | 0.00 | 69 | 1008.1 |
| 20260505124023 | 64 | 236 | 1.0 | 3.0 | 0.00 | 0.00 | 0.00 | 70 | 1008.1 |
| 20260505123520 | 64 | 238 | 1.0 | 1.0 | 0.00 | 0.00 | 0.00 | 71 | 1008.3 |
| 20260505123016 | 64 | 214 | 1.0 | 2.0 | 0.00 | 0.00 | 0.00 | 70 | 1008.2 |
| 20260505122513 | 64 | 231 | 1.0 | 1.0 | 0.00 | 0.00 | 0.00 | 71 | 1008.0 |
| 20260505122010 | 64 | 232 | 1.0 | 2.0 | 0.00 | 0.00 | 0.00 | 70 | 1008.0 |
| 20260505121506 | 64 | 220 | 2.0 | 2.0 | 0.00 | 0.00 | 0.00 | 70 | 1008.0 |
| 20260505121003 | 64 | 213 | 0.0 | 1.0 | 0.00 | 0.00 | 0.00 | 71 | 1007.9 |
| 20260505120459 | 64 | 215 | 1.0 | 2.0 | 0.00 | 0.00 | 0.00 | 71 | 1007.8 |
| 20260505115958 | 64 | 212 | 0.0 | 0.0 | 0.00 | 0.00 | 0.00 | 71 | 1007.9 |
| 20260505115455 | 64 | 214 | 0.0 | 1.0 | 0.00 | 0.00 | 0.00 | 72 | 1007.9 |
| 20260505114953 | 63 | 233 | 2.0 | 2.0 | 0.00 | 0.00 | 0.00 | 73 | 1007.8 |
| 20260505114449 | 63 | 218 | 2.0 | 2.0 | 0.00 | 0.00 | 0.00 | 71 | 1008.0 |
| 20260505113946 | 63 | 206 | 1.0 | 2.0 | 0.00 | 0.00 | 0.00 | 70 | 1007.8 |
| 20260505113442 | 63 | 214 | 3.0 | 3.0 | 0.00 | 0.00 | 0.00 | 71 | 1007.9 |
| 20260505112937 | 63 | 216 | 0.0 | 1.0 | 0.00 | 0.00 | 0.00 | 73 | 1007.8 |
| 20260505112435 | 63 | 212 | 1.0 | 2.0 | 0.00 | 0.00 | 0.00 | 71 | 1007.7 |
| 20260505111931 | 63 | 217 | 1.0 | 1.0 | 0.00 | 0.00 | 0.00 | 71 | 1007.6 |
| 20260505111426 | 63 | 212 | 1.0 | 2.0 | 0.00 | 0.00 | 0.00 | 72 | 1007.6 |
| 20260505110923 | 63 | 216 | 2.0 | 3.0 | 0.00 | 0.00 | 0.00 | 71 | 1007.3 |
| 20260505110420 | 62 | 183 | 4.0 | 6.0 | 0.00 | 0.00 | 0.00 | 74 | 1007.4 |
| 20260505101851 | 63 | 211 | 1.0 | 1.0 | 0.00 | 0.00 | 0.00 | 71 | 1006.8 |
| 20260505101346 | 63 | 213 | 0.0 | 1.0 | 0.00 | 0.00 | 0.00 | 71 | 1006.7 |
| 20260505100842 | 63 | 213 | 1.0 | 1.0 | 0.00 | 0.00 | 0.00 | 71 | 1006.8 |
| 20260505100338 | 63 | 188 | 1.0 | 1.0 | 0.00 | 0.00 | 0.00 | 70 | 1006.6 |
| 20260505095834 | 63 | 232 | 1.0 | 1.0 | 0.00 | 0.00 | 0.00 | 72 | 1006.8 |
| 20260505095332 | 63 | 223 | 1.0 | 1.0 | 0.00 | 0.00 | 0.00 | 73 | 1006.8 |
| 20260505094828 | 63 | 212 | 0.0 | 1.0 | 0.00 | 0.00 | 0.00 | 71 | 1006.5 |
| 20260505094325 | 63 | 212 | 1.0 | 1.0 | 0.00 | 0.00 | 0.00 | 70 | 1006.6 |
| 20260505093820 | 63 | 209 | 1.0 | 1.0 | 0.00 | 0.00 | 0.00 | 70 | 1006.8 |
| 20260505093318 | 64 | 221 | 2.0 | 2.0 | 0.00 | 0.00 | 0.00 | 70 | 1006.6 |
| 20260505092814 | 64 | 221 | 3.0 | 3.0 | 0.00 | 0.00 | 0.00 | 68 | 1006.7 |
| 20260505092313 | 64 | 222 | 3.0 | 5.0 | 0.00 | 0.00 | 0.00 | 69 | 1006.6 |
| 20260505091810 | 64 | 223 | 1.0 | 1.0 | 0.00 | 0.00 | 0.00 | 70 | 1006.1 |
| 20260505091308 | 64 | 187 | 1.0 | 1.0 | 0.00 | 0.00 | 0.00 | 69 | 1006.6 |
| 20260505090806 | 64 | 190 | 3.0 | 3.0 | 0.00 | 0.00 | 0.00 | 70 | 1006.4 |
| 20260505090304 | 64 | 223 | 1.0 | 2.0 | 0.00 | 0.00 | 0.00 | 68 | 1006.6 |
| 20260505085801 | 64 | 242 | 2.0 | 2.0 | 0.00 | 0.00 | 0.00 | 69 | 1006.2 |
| 20260505085259 | 64 | 224 | 2.0 | 2.0 | 0.00 | 0.00 | 0.00 | 68 | 1006.5 |
| 20260505084756 | 64 | 203 | 1.0 | 2.0 | 0.00 | 0.00 | 0.00 | 68 | 1006.5 |
| 20260505084255 | 64 | 177 | 2.0 | 2.0 | 0.00 | 0.00 | 0.00 | 68 | 1006.2 |
| 20260505083751 | 64 | 261 | 2.0 | 3.0 | 0.00 | 0.00 | 0.00 | 71 | 1005.9 |
| 20260505083248 | 64 | 217 | 1.0 | 2.0 | 0.00 | 0.00 | 0.00 | 72 | 1006.2 |
| 20260505082744 | 63 | 217 | 1.0 | 1.0 | 0.00 | 0.00 | 0.00 | 70 | 1006.0 |
| 20260505082242 | 64 | 222 | 1.0 | 1.0 | 0.00 | 0.00 | 0.00 | 70 | 1006.0 |
| 20260505081737 | 64 | 229 | 1.0 | 2.0 | 0.00 | 0.00 | 0.00 | 70 | 1005.9 |
| 20260505081235 | 63 | 217 | 2.0 | 2.0 | 0.00 | 0.00 | 0.00 | 69 | 1005.9 |
| 20260505080732 | 63 | 222 | 1.0 | 2.0 | 0.00 | 0.00 | 0.00 | 71 | 1005.5 |
| 20260505080227 | 63 | 222 | 1.0 | 1.0 | 0.00 | 0.00 | 0.00 | 71 | 1005.6 |
| 20260505075723 | 63 | 219 | 1.0 | 2.0 | 0.00 | 0.00 | 0.00 | 70 | 1005.7 |
| 20260505075220 | 63 | 219 | 2.0 | 2.0 | 0.00 | 0.00 | 0.00 | 72 | 1005.7 |
| 20260505074718 | 63 | 215 | 1.0 | 1.0 | 0.00 | 0.00 | 0.00 | 72 | 1005.7 |
| 20260505074215 | 63 | 213 | 2.0 | 3.0 | 0.00 | 0.00 | 0.00 | 70 | 1005.5 |
| 20260505073712 | 63 | 226 | 2.0 | 2.0 | 0.00 | 0.00 | 0.00 | 69 | 1005.8 |
| 20260505073210 | 63 | 231 | 0.0 | 1.0 | 0.00 | 0.00 | 0.00 | 70 | 1005.6 |
| 20260505072705 | 63 | 225 | 2.0 | 3.0 | 0.00 | 0.00 | 0.00 | 70 | 1005.7 |
| 20260505072202 | 63 | 226 | 1.0 | 1.0 | 0.00 | 0.00 | 0.00 | 72 | 1005.7 |
| 20260505071657 | 64 | 212 | 0.0 | 1.0 | 0.00 | 0.00 | 0.00 | 69 | 1005.7 |
| 20260505071155 | 64 | 222 | 0.0 | 1.0 | 0.00 | 0.00 | 0.00 | 70 | 1005.6 |
| 20260505070653 | 64 | 221 | 0.0 | 1.0 | 0.00 | 0.00 | 0.00 | 70 | 1005.9 |
| 20260505070149 | 63 | 220 | 1.0 | 1.0 | 0.00 | 0.00 | 0.00 | 71 | 1005.8 |
| 20260505065645 | 64 | 216 | 2.0 | 2.0 | 0.00 | 0.00 | 0.00 | 70 | 1005.6 |
| 20260505065142 | 63 | 203 | 1.0 | 1.0 | 0.00 | 0.00 | 0.00 | 72 | 1005.8 |
| 20260505064639 | 64 | 198 | 1.0 | 1.0 | 0.00 | 0.00 | 0.00 | 72 | 1006.0 |
| 20260505064136 | 63 | 208 | 2.0 | 2.0 | 0.00 | 0.00 | 0.00 | 71 | 1006.0 |
| 20260505063634 | 64 | 222 | 1.0 | 1.0 | 0.00 | 0.00 | 0.00 | 72 | 1005.8 |
| 20260505063130 | 63 | 199 | 1.0 | 2.0 | 0.00 | 0.00 | 0.00 | 70 | 1006.0 |
| 20260505062626 | 62 | 220 | 1.0 | 1.0 | 0.00 | 0.00 | 0.00 | 73 | 1006.2 |
| 20260505062124 | 62 | 219 | 0.0 | 0.0 | 0.00 | 0.00 | 0.00 | 74 | 1005.9 |
| 20260505061621 | 62 | 214 | 1.0 | 1.0 | 0.00 | 0.00 | 0.00 | 74 | 1006.2 |
| 20260505061119 | 63 | 212 | 2.0 | 2.0 | 0.00 | 0.00 | 0.00 | 72 | 1006.6 |
| 20260505060616 | 62 | 212 | 1.0 | 1.0 | 0.00 | 0.00 | 0.00 | 74 | 1006.2 |
| 20260505060113 | 63 | 212 | 1.0 | 1.0 | 0.00 | 0.00 | 0.00 | 74 | 1006.6 |
| 20260505055608 | 62 | 212 | 0.0 | 0.0 | 0.00 | 0.00 | 0.00 | 75 | 1006.7 |
| 20260505055105 | 62 | 210 | 0.0 | 1.0 | 0.00 | 0.00 | 0.00 | 76 | 1006.6 |
| 20260505054602 | 62 | 208 | 1.0 | 1.0 | 0.00 | 0.00 | 0.00 | 75 | 1006.7 |
| 20260505054100 | 62 | 207 | 0.0 | 1.0 | 0.00 | 0.00 | 0.00 | 76 | 1007.0 |
| 20260505053557 | 62 | 219 | 1.0 | 1.0 | 0.00 | 0.00 | 0.00 | 76 | 1006.9 |
| 20260505053054 | 62 | 220 | 1.0 | 1.0 | 0.00 | 0.00 | 0.00 | 77 | 1007.0 |
| 20260505052550 | 64 | 187 | 1.0 | 2.0 | 0.00 | 0.00 | 0.00 | 74 | 1007.0 |
| 20260505052048 | 64 | 224 | 1.0 | 2.0 | 0.00 | 0.00 | 0.00 | 69 | 1007.3 |
| 20260505051545 | 64 | 199 | 1.0 | 2.0 | 0.00 | 0.00 | 0.00 | 69 | 1007.0 |
| 20260505051043 | 64 | 198 | 0.0 | 0.0 | 0.00 | 0.00 | 0.00 | 69 | 1007.0 |
| 20260505050541 | 64 | 197 | 0.0 | 1.0 | 0.00 | 0.00 | 0.00 | 70 | 1007.2 |
| 20260505041509 | 63 | 212 | 1.0 | 1.0 | 0.00 | 0.00 | 0.00 | 68 | 1007.2 |
| 20260505041006 | 63 | 212 | 1.0 | 1.0 | 0.00 | 0.00 | 0.00 | 68 | 1007.2 |
| 20260505040503 | 64 | 211 | 1.0 | 1.0 | 0.00 | 0.00 | 0.00 | 68 | 1007.4 |
| 20260505040000 | 64 | 211 | 2.0 | 2.0 | 0.00 | 0.00 | 0.00 | 67 | 1007.3 |
| 20260505035456 | 64 | 226 | 1.0 | 1.0 | 0.00 | 0.00 | 0.00 | 67 | 1007.2 |
| 20260505034953 | 64 | 226 | 2.0 | 2.0 | 0.00 | 0.00 | 0.00 | 66 | 1007.1 |
| 20260505034449 | 64 | 206 | 2.0 | 2.0 | 0.00 | 0.00 | 0.00 | 66 | 1007.2 |
| 20260505033947 | 64 | 206 | 2.0 | 2.0 | 0.00 | 0.00 | 0.00 | 67 | 1007.1 |
| 20260505033443 | 64 | 206 | 1.0 | 1.0 | 0.00 | 0.00 | 0.00 | 67 | 1007.1 |
| 20260505032942 | 64 | 206 | 1.0 | 1.0 | 0.00 | 0.00 | 0.00 | 65 | 1007.3 |
| 20260505032439 | 64 | 206 | 2.0 | 2.0 | 0.00 | 0.00 | 0.00 | 66 | 1007.3 |
| 20260505031935 | 64 | 206 | 1.0 | 2.0 | 0.00 | 0.00 | 0.00 | 65 | 1007.2 |
| 20260505031432 | 64 | 206 | 1.0 | 2.0 | 0.00 | 0.00 | 0.00 | 65 | 1007.4 |
| 20260505030929 | 65 | 206 | 1.0 | 1.0 | 0.00 | 0.00 | 0.00 | 64 | 1007.6 |
| 20260505030425 | 65 | 206 | 1.0 | 2.0 | 0.00 | 0.00 | 0.00 | 63 | 1007.5 |
| 20260505025920 | 65 | 206 | 0.0 | 0.0 | 0.00 | 0.00 | 0.00 | 63 | 1007.5 |
| 20260505025418 | 65 | 206 | 1.0 | 1.0 | 0.00 | 0.00 | 0.00 | 62 | 1007.6 |
| 20260505024917 | 65 | 205 | 1.0 | 1.0 | 0.00 | 0.00 | 0.00 | 63 | 1007.5 |
| 20260505024414 | 65 | 205 | 3.0 | 3.0 | 0.00 | 0.00 | 0.00 | 61 | 1007.4 |
| 20260505023911 | 66 | 205 | 0.0 | 1.0 | 0.00 | 0.00 | 0.00 | 62 | 1007.6 |
| 20260505023408 | 66 | 205 | 2.0 | 2.0 | 0.00 | 0.00 | 0.00 | 61 | 1007.7 |
| 20260505022905 | 65 | 205 | 0.0 | 1.0 | 0.00 | 0.00 | 0.00 | 64 | 1007.6 |
| 20260505022402 | 66 | 205 | 1.0 | 1.0 | 0.00 | 0.00 | 0.00 | 62 | 1007.7 |
| 20260505021859 | 66 | 205 | 1.0 | 1.0 | 0.00 | 0.00 | 0.00 | 62 | 1007.5 |
| 20260505021355 | 66 | 206 | 2.0 | 2.0 | 0.00 | 0.00 | 0.00 | 61 | 1007.7 |
| 20260505020851 | 67 | 205 | 2.0 | 2.0 | 0.00 | 0.00 | 0.00 | 59 | 1007.5 |
| 20260505020347 | 67 | 206 | 1.0 | 1.0 | 0.00 | 0.00 | 0.00 | 60 | 1007.5 |
| 20260505015844 | 67 | 206 | 1.0 | 1.0 | 0.00 | 0.00 | 0.00 | 61 | 1007.4 |
| 20260505015341 | 67 | 205 | 1.0 | 2.0 | 0.00 | 0.00 | 0.00 | 60 | 1007.4 |
| 20260505014839 | 67 | 205 | 2.0 | 2.0 | 0.00 | 0.00 | 0.00 | 59 | 1007.5 |
| 20260505014335 | 67 | 220 | 2.0 | 2.0 | 0.00 | 0.00 | 0.00 | 59 | 1007.3 |
| 20260505013832 | 67 | 206 | 1.0 | 2.0 | 0.00 | 0.00 | 0.00 | 59 | 1007.5 |
| 20260505013329 | 66 | 209 | 3.0 | 5.0 | 0.00 | 0.00 | 0.00 | 63 | 1007.3 |
| 20260505012828 | 67 | 211 | 1.0 | 2.0 | 0.00 | 0.00 | 0.00 | 59 | 1007.0 |
| 20260505012325 | 67 | 211 | 1.0 | 2.0 | 0.00 | 0.00 | 0.00 | 60 | 1007.0 |
| 20260505011820 | 67 | 211 | 0.0 | 1.0 | 0.00 | 0.00 | 0.00 | 61 | 1006.9 |
| 20260505011318 | 67 | 211 | 1.0 | 2.0 | 0.00 | 0.00 | 0.00 | 60 | 1006.7 |
| 20260505010814 | 67 | 211 | 1.0 | 1.0 | 0.00 | 0.00 | 0.00 | 63 | 1006.7 |
| 20260505010310 | 67 | 211 | 0.0 | 1.0 | 0.00 | 0.00 | 0.00 | 61 | 1006.8 |
| 20260505005806 | 67 | 211 | 1.0 | 1.0 | 0.00 | 0.00 | 0.00 | 59 | 1006.8 |